Weather History for Kill Devil Hills, NC

Change the Weather History Date:

Thursday, November 15, 2012

  Actual Average (KMQI) Record (KMQI)
Temperature  
Mean Temperature 52 °F -  
Max Temperature 57 °F 59 °F 77 °F (1968)
Min Temperature 48 °F 47 °F 31 °F (1979)
Degree Days  
Heating Degree Days 12    
Growing Degree Days 2 (Base 50)    
Moisture  
Dew Point 48 °F    
Average Humidity 82    
Maximum Humidity 91    
Minimum Humidity 76    
Precipitation  
Precipitation 0.00 in - - ()
Sea Level Pressure  
Sea Level Pressure 30.23 in    
Wind  
Wind Speed 9 mph (NNE)    
Max Wind Speed 14 mph    
Max Gust Speed 22 mph    
Visibility 9 miles    
Events Rain    
Averages and records for this station are not official NWS values.
T = Trace of Precipitation, MM = Missing Value Source: NWS Daily Summary

Daily Weather History Graph

Daily Weather History Graph

Search for Another Location

Airport:

Trip Planner

Search our weather history database for the weather conditions in past years. The results will help you decide how hot, cold, wet, or windy it might be!

Date:

Astronomy

Nov. 15, 2012 Rise Set
Actual Time 6:39 AM EST 4:54 PM EST
Civil Twilight 6:12 AM EST 5:22 PM EST
Nautical Twilight 5:41 AM EST 5:53 PM EST
Astronomical Twilight 5:10 AM EST 6:23 PM EST
Moon 8:30 AM EST (11/15) 6:45 PM EST (11/15)
Length of Visible Light 11h 09m
Length of Day
10h 15m
Waxing Crescent, 5% of the Moon is Illuminated
Nov 15
Waxing Crescent
Nov 20
First Quarter
Nov 28
Full
Dec 6
Last Quarter
Dec 13
New

Hourly Weather History & Observations

Time (EST) Temp. Dew Point Humidity Pressure Visibility Wind Dir Wind Speed Gust Speed Precip Events Conditions
12:15 AM 50.9 °F 44.6 °F 79% 30.30 in 10.0 mi North 6.9 mph 17.3 mph N/A   Overcast
12:35 AM 49.6 °F 44.4 °F 82% 30.30 in 10.0 mi North 9.2 mph 20.7 mph N/A   Mostly Cloudy
12:55 AM 48.7 °F 43.5 °F 82% 30.29 in 10.0 mi North 10.4 mph 16.1 mph N/A   Overcast
1:15 AM 48.6 °F 43.0 °F 81% 30.29 in 10.0 mi North 8.1 mph - N/A   Overcast
1:35 AM 48.6 °F 43.3 °F 82% 30.28 in 10.0 mi North 9.2 mph 17.3 mph N/A   Overcast
1:55 AM 48.9 °F 43.9 °F 83% 30.28 in 10.0 mi North 9.2 mph 18.4 mph N/A   Overcast
2:15 AM 49.3 °F 44.4 °F 83% 30.27 in 10.0 mi North 10.4 mph 17.3 mph N/A   Overcast
2:35 AM 49.5 °F 45.0 °F 84% 30.26 in 10.0 mi North 11.5 mph 17.3 mph N/A   Mostly Cloudy
2:55 AM 49.8 °F 45.7 °F 86% 30.25 in 10.0 mi North 6.9 mph 17.3 mph N/A   Mostly Cloudy
3:15 AM 50.0 °F 46.4 °F 87% 30.24 in 10.0 mi North 10.4 mph 16.1 mph N/A   Mostly Cloudy
3:35 AM 50.0 °F 46.6 °F 88% 30.23 in 10.0 mi North 9.2 mph 17.3 mph N/A   Scattered Clouds
3:55 AM 50.0 °F 47.1 °F 90% 30.23 in 7.0 mi NNW 9.2 mph - N/A   Mostly Cloudy
4:15 AM 50.5 °F 47.8 °F 90% 30.23 in 7.0 mi North 8.1 mph - N/A   Scattered Clouds
4:35 AM 51.1 °F 48.4 °F 90% 30.23 in 7.0 mi NNW 6.9 mph - N/A   Clear
4:55 AM 51.6 °F 49.1 °F 91% 30.23 in 7.0 mi North 6.9 mph - N/A   Mostly Cloudy
5:15 AM 52.5 °F 50.0 °F 91% 30.24 in 7.0 mi NNE 4.6 mph - N/A   Overcast
5:35 AM 54.1 °F 49.6 °F 85% 30.22 in 10.0 mi NE 5.8 mph - N/A   Overcast
5:55 AM 54.7 °F 48.2 °F 79% 30.22 in 10.0 mi NE 6.9 mph - N/A   Overcast
6:15 AM 54.5 °F 47.1 °F 76% 30.22 in 10.0 mi NE 8.1 mph - N/A   Overcast
6:35 AM 54.0 °F 47.7 °F 79% 30.23 in 10.0 mi ENE 6.9 mph - N/A   Scattered Clouds
6:55 AM 53.8 °F 47.3 °F 79% 30.23 in 10.0 mi NE 10.4 mph 18.4 mph N/A   Clear
7:15 AM 54.1 °F 47.8 °F 79% 30.24 in 7.0 mi ENE 9.2 mph - N/A   Scattered Clouds
7:35 AM 54.1 °F 48.4 °F 81% 30.24 in 7.0 mi NE 8.1 mph 17.3 mph N/A   Mostly Cloudy
7:55 AM 54.0 °F 48.9 °F 83% 30.25 in 7.0 mi ENE 8.1 mph 17.3 mph N/A   Scattered Clouds
8:15 AM 54.1 °F 49.1 °F 83% 30.26 in 7.0 mi NE 9.2 mph 16.1 mph N/A   Clear
8:35 AM 54.5 °F 49.1 °F 82% 30.26 in 7.0 mi NE 6.9 mph 18.4 mph N/A   Mostly Cloudy
8:55 AM 55.0 °F 49.3 °F 81% 30.26 in 7.0 mi NE 9.2 mph 16.1 mph N/A   Overcast
9:15 AM 55.2 °F 49.1 °F 80% 30.26 in 7.0 mi NE 9.2 mph 16.1 mph N/A   Scattered Clouds
9:35 AM 55.6 °F 49.3 °F 79% 30.25 in 7.0 mi NE 11.5 mph 18.4 mph N/A   Clear
9:55 AM 55.9 °F 49.3 °F 78% 30.25 in 7.0 mi NE 10.4 mph 16.1 mph N/A   Clear
10:15 AM 56.8 °F 49.3 °F 76% 30.25 in 7.0 mi NE 10.4 mph 18.4 mph N/A   Clear
10:35 AM 57.0 °F 49.5 °F 76% 30.25 in 7.0 mi NE 11.5 mph 20.7 mph N/A   Clear
10:55 AM 57.2 °F 49.6 °F 76% 30.24 in 7.0 mi NE 11.5 mph 18.4 mph N/A   Clear
11:15 AM 57.0 °F 49.5 °F 76% 30.23 in 7.0 mi NNE 10.4 mph 18.4 mph N/A   Clear
11:35 AM 57.2 °F 49.6 °F 76% 30.23 in 7.0 mi NE 10.4 mph 19.6 mph N/A   Clear
11:55 AM 56.3 °F 49.6 °F 78% 30.22 in 7.0 mi NE 9.2 mph 19.6 mph N/A   Clear
12:15 PM 56.3 °F 49.3 °F 77% 30.21 in 7.0 mi NE 10.4 mph 18.4 mph N/A   Clear
12:35 PM 56.1 °F 49.1 °F 77% 30.20 in 7.0 mi NE 10.4 mph 18.4 mph N/A   Clear
12:55 PM 56.3 °F 49.1 °F 77% 30.20 in 7.0 mi NNE 10.4 mph 17.3 mph N/A   Clear
1:15 PM 55.9 °F 49.1 °F 78% 30.20 in 7.0 mi NNE 8.1 mph 16.1 mph N/A   Clear
1:35 PM 55.4 °F 48.7 °F 78% 30.20 in 7.0 mi NE 9.2 mph 17.3 mph N/A   Clear
1:55 PM 55.0 °F 48.6 °F 79% 30.21 in 7.0 mi NNE 10.4 mph 17.3 mph N/A   Clear
2:15 PM 54.9 °F 48.6 °F 79% 30.21 in 10.0 mi NNE 10.4 mph 16.1 mph N/A   Mostly Cloudy
2:35 PM 54.5 °F 48.4 °F 80% 30.21 in 10.0 mi NNE 10.4 mph 19.6 mph N/A   Scattered Clouds
2:55 PM 54.5 °F 48.2 °F 79% 30.20 in 10.0 mi NNE 13.8 mph 18.4 mph N/A   Scattered Clouds
3:15 PM 54.0 °F 47.8 °F 80% 30.20 in 10.0 mi NNE 12.7 mph 20.7 mph N/A   Scattered Clouds
3:35 PM 53.8 °F 47.7 °F 80% 30.21 in 10.0 mi NNE 9.2 mph 17.3 mph N/A   Scattered Clouds
3:55 PM 53.4 °F 47.3 °F 80% 30.20 in 10.0 mi NNE 10.4 mph 18.4 mph N/A   Scattered Clouds
4:15 PM 53.2 °F 47.3 °F 80% 30.20 in 10.0 mi NNE 10.4 mph 18.4 mph N/A   Clear
4:35 PM 53.2 °F 47.3 °F 80% 30.20 in 10.0 mi NNE 11.5 mph 20.7 mph N/A   Scattered Clouds
4:55 PM 53.1 °F 47.1 °F 80% 30.19 in 10.0 mi NNE 9.2 mph 18.4 mph N/A   Mostly Cloudy
5:15 PM 52.7 °F 46.9 °F 81% 30.19 in 10.0 mi NNE 10.4 mph 19.6 mph N/A   Scattered Clouds
5:35 PM 52.7 °F 46.8 °F 80% 30.20 in 10.0 mi NNE 11.5 mph 17.3 mph N/A   Clear
5:55 PM 52.7 °F 47.1 °F 81% 30.19 in 10.0 mi NNE 10.4 mph 18.4 mph N/A   Scattered Clouds
6:15 PM 52.7 °F 47.3 °F 82% 30.21 in 10.0 mi NNE 9.2 mph 17.3 mph N/A   Scattered Clouds
6:35 PM 52.9 °F 47.3 °F 81% 30.20 in 10.0 mi NNE 12.7 mph 21.9 mph N/A   Mostly Cloudy
6:55 PM 52.7 °F 47.5 °F 82% 30.19 in 10.0 mi NNE 10.4 mph 18.4 mph N/A   Mostly Cloudy
7:15 PM 52.7 °F 47.5 °F 82% 30.19 in 10.0 mi NNE 11.5 mph 20.7 mph N/A   Mostly Cloudy
7:35 PM 52.7 °F 47.5 °F 82% 30.19 in 10.0 mi NNE 11.5 mph 19.6 mph N/A   Mostly Cloudy
7:55 PM 52.5 °F 47.5 °F 83% 30.20 in 10.0 mi NNE 10.4 mph 19.6 mph N/A   Scattered Clouds
8:15 PM 52.5 °F 47.5 °F 83% 30.20 in 10.0 mi NNE 10.4 mph 20.7 mph N/A   Mostly Cloudy
8:35 PM 52.3 °F 47.3 °F 83% 30.21 in 10.0 mi NNE 9.2 mph 17.3 mph N/A   Mostly Cloudy
8:55 PM 52.5 °F 47.3 °F 82% 30.21 in 10.0 mi NNE 9.2 mph 16.1 mph N/A   Mostly Cloudy
9:15 PM 52.5 °F 47.5 °F 83% 30.22 in 10.0 mi North 10.4 mph 16.1 mph N/A   Mostly Cloudy
9:35 PM 52.5 °F 47.5 °F 83% 30.21 in 10.0 mi North 9.2 mph 17.3 mph N/A   Mostly Cloudy
9:55 PM 52.3 °F 47.5 °F 84% 30.21 in 10.0 mi North 8.1 mph - N/A   Overcast
10:15 PM 52.3 °F 47.5 °F 84% 30.21 in 10.0 mi North 10.4 mph - N/A   Overcast
10:35 PM 52.2 °F 47.7 °F 85% 30.22 in 7.0 mi North 6.9 mph - N/A Rain Rain
10:55 PM 51.6 °F 48.2 °F 88% 30.21 in 7.0 mi North 6.9 mph - N/A Rain Light Rain
11:15 PM 50.9 °F 48.4 °F 91% 30.21 in 7.0 mi North 6.9 mph - N/A Rain Rain
11:35 PM 50.9 °F 48.4 °F 91% 30.20 in 7.0 mi North 8.1 mph 17.3 mph N/A Rain Rain
11:55 PM 50.9 °F 48.4 °F 91% 30.18 in 7.0 mi NNE 10.4 mph 18.4 mph N/A Rain Light Rain